Stations météo

réclame
Mon MeteoGroup
Ölands Norra Udde, Suède (2575): Température de l'air & dewpoint: 08.08.2018 15:00:00 - 14.08.2018 15:00:00 (CEST)Ölands Norra Udde, Suède (2575): Vitesse du vent & gusts: 08.08.2018 15:00:00 - 14.08.2018 15:00:00 (CEST)Ölands Norra Udde, Suède (2575): Direction du vent: 08.08.2018 15:00:00 - 14.08.2018 15:00:00 (CEST)Ölands Norra Udde, Suède (2575): reduced air pressure: 08.08.2018 15:00:00 - 14.08.2018 15:00:00 (CEST)Ölands Norra Udde, Suède (2575): visibility: 08.08.2018 15:00:00 - 14.08.2018 15:00:00 (CEST)Ölands Norra Udde, Suède (2575): Quantités de précipitations: 08.08.2018 15:00:00 - 14.08.2018 15:00:00 (CEST)
Date & Time tt [°C] td [°C] ff [km/h] ff [knt] fx [km/h] fx [knt] dd ppp [hPa] vv [km] rr [mm]
14.08.2018 15:00:00 19,0 16,4 21 11 37 20 ESE 1006,3 16 0,0
14.08.2018 14:00:00 19,3 16,3 22 12 37 20 ESE 1006,7 20 0,0
14.08.2018 13:00:00 19,5 16,9 19 10 37 20 ESE 1007,1 19 0,0
14.08.2018 12:00:00 18,4 16,6 19 10 34 18 ESE 1007,4 34 0,0
14.08.2018 11:00:00 18,5 16,1 17 9 34 18 ESE 1007,9 17 0,0
14.08.2018 10:00:00 18,3 16,3 16 8 31 17 ESE 1008,1 21 0,0
14.08.2018 09:00:00 18,4 16,0 17 9 29 16 ESE 1008,1 22 0,0
14.08.2018 08:00:00 18,0 16,2 16 9 30 16 E 1008,1 16 0,0
14.08.2018 07:00:00 17,6 16,3 17 9 30 16 ESE 1008,5 16 0,0
14.08.2018 06:00:00 17,1 16,1 14 8 24 13 ESE 1008,8 45 0,5
14.08.2018 05:00:00 17,0 15,7 11 6 18 10 E 1009,0 23 0,5
14.08.2018 04:00:00 17,2 14,5 8 4 16 9 ESE 1009,4 18 0,0
14.08.2018 03:00:00 16,7 14,5 8 4 16 9 SE 1009,7 39 0,0
14.08.2018 02:00:00 17,5 14,4 10 6 16 9 SSE 1009,9 17 0,0
14.08.2018 01:00:00 17,1 14,2 10 5 15 8 SSE 1010,0 31 0,0
14.08.2018 00:00:00 16,2 13,9 7 4 14 8 SE 1009,8 26 0,0
13.08.2018 23:00:00 15,3 13,0 7 4 14 8 SSE 1009,9 26 0,0
13.08.2018 22:00:00 15,7 12,8 6 4 19 10 SSE 1009,8 13 0,0
13.08.2018 21:00:00 16,8 13,1 11 6 24 13 S 1010,1 12 0,0
13.08.2018 20:00:00 18,5 13,1 14 8 26 14 SSE 1010,0 17 0,0
13.08.2018 19:00:00 19,6 12,4 13 7 26 14 SSE 1010,1 14 0,0
13.08.2018 18:00:00 20,2 11,7 14 8 23 13 SSE 1010,3 14 0,0
13.08.2018 17:00:00 21,1 11,7 15 8 27 14 SE 1010,5 10 0,0
13.08.2018 16:00:00 20,2 11,1 17 9 27 14 SE 1010,4 12 0,0
13.08.2018 15:00:00 20,6 11,0 10 5 21 11 ESE 1010,5 21 0,0
13.08.2018 14:00:00 19,7 10,4 8 5 14 8 E 1011,0 22 0,0
13.08.2018 13:00:00 19,6 9,5 8 5 15 8 ENE 1010,9 16 0,0
13.08.2018 12:00:00 19,0 9,5 9 5 15 8 WNW 1011,0 50 0,0
13.08.2018 11:00:00 18,3 9,6 9 5 15 8 NW 1011,0 19 0,0
13.08.2018 10:00:00 17,7 8,8 6 3 - - W 1010,9 27 0,0
13.08.2018 09:00:00 17,2 9,4 8 4 - - WNW 1010,7 17 -
13.08.2018 08:00:00 16,2 8,9 10 6 23 13 NW 1010,6 19 0,0
13.08.2018 07:00:00 15,3 10,3 16 9 29 15 NW 1010,5 20 0,0
13.08.2018 06:00:00 14,6 10,0 18 10 29 15 WNW 1010,3 15 0,0
13.08.2018 05:00:00 14,7 9,9 21 12 28 15 WNW 1010,1 13 0,0
13.08.2018 04:00:00 14,8 9,6 21 11 29 16 WNW 1010,1 15 0,0
13.08.2018 03:00:00 15,1 9,0 22 12 35 19 W 1010,1 12 0,0
13.08.2018 02:00:00 15,1 9,5 23 12 35 19 W 1010,2 15 0,0
13.08.2018 01:00:00 15,7 9,4 26 14 35 19 WNW 1010,2 15 0,0
13.08.2018 00:00:00 16,2 10,3 22 12 40 21 W 1010,0 13 0,0
12.08.2018 23:00:00 16,8 9,2 24 13 44 24 W 1009,8 14 0,0
12.08.2018 22:00:00 18,0 9,4 37 20 44 24 WNW 1009,5 12 0,0
12.08.2018 21:00:00 18,9 7,6 22 12 44 24 W 1009,0 14 0,0
12.08.2018 20:00:00 19,4 8,4 28 15 44 24 W 1008,6 13 0,0
12.08.2018 19:00:00 19,4 8,4 14 8 25 14 WSW 1008,3 18 0,0
12.08.2018 18:00:00 19,1 10,4 15 8 46 25 W 1008,4 19 0,0
12.08.2018 17:00:00 18,9 10,7 24 13 50 27 WNW 1008,4 22 0,0
12.08.2018 16:00:00 21,7 7,9 29 16 50 27 WSW 1008,0 17 0,0
12.08.2018 15:00:00 21,2 8,5 32 17 51 27 WSW 1007,7 22 0,0
12.08.2018 14:00:00 21,0 8,6 34 18 51 27 WSW 1007,6 17 0,0
12.08.2018 13:00:00 20,2 10,6 31 17 54 29 WSW 1007,7 20 0,0
12.08.2018 12:00:00 19,0 11,1 35 19 54 29 WSW 1007,6 24 0,0
12.08.2018 11:00:00 18,4 10,5 32 17 55 30 WSW 1007,4 20 0,0
12.08.2018 10:00:00 17,0 10,4 35 19 55 30 WSW 1007,1 18 0,0
12.08.2018 09:00:00 16,0 11,0 34 18 51 28 WSW 1006,7 13 0,0
12.08.2018 08:00:00 14,5 11,3 29 16 50 27 WSW 1006,6 16 0,0
12.08.2018 07:00:00 14,4 11,9 23 12 37 20 WSW 1006,5 20 0,0
12.08.2018 06:00:00 13,8 11,7 24 13 40 22 W 1006,3 18 0,0
12.08.2018 05:00:00 14,1 11,8 28 15 40 22 W 1006,2 20 0,0
12.08.2018 04:00:00 14,1 10,9 21 12 39 21 WSW 1006,9 12 0,0
12.08.2018 03:00:00 13,9 11,1 26 14 39 21 W 1007,0 11 0,0
12.08.2018 02:00:00 15,0 11,6 16 9 26 14 WSW 1007,0 15 0,0
12.08.2018 01:00:00 14,8 13,2 13 7 29 16 SW 1007,4 11 0,0
12.08.2018 00:00:00 15,0 12,9 20 11 32 17 S 1007,9 12 0,0
11.08.2018 23:00:00 15,9 13,0 24 13 36 20 S 1008,7 17 0,0
11.08.2018 22:00:00 16,6 13,7 26 14 37 20 S 1009,3 14 0,0
11.08.2018 21:00:00 16,4 14,6 25 13 37 20 S 1010,2 10 0,4
11.08.2018 20:00:00 16,2 14,7 23 13 49 27 SSE 1011,0 16 0,0
11.08.2018 19:00:00 15,4 14,3 24 13 49 27 SSE 1011,4 26 0,9
11.08.2018 18:00:00 17,5 11,5 27 15 48 26 SW 1012,4 20 0,0
11.08.2018 17:00:00 19,9 14,7 22 12 33 18 SE 1012,9 17 0,0
11.08.2018 16:00:00 18,4 15,3 10 5 42 23 SSE 1013,7 17 0,0
11.08.2018 15:00:00 16,1 12,6 9 5 50 27 SW 1014,7 21 0,4
11.08.2018 14:00:00 16,1 13,6 23 12 50 27 SSW 1016,4 26 0,4
11.08.2018 13:00:00 20,3 12,8 32 17 44 24 S 1016,2 11 0,0
11.08.2018 12:00:00 23,1 14,1 21 11 32 18 SSE 1016,5 22 0,0
11.08.2018 11:00:00 22,8 10,2 17 9 31 17 SSW 1017,1 13 0,0
11.08.2018 10:00:00 21,2 12,1 13 7 30 16 SSW 1017,4 15 0,0
11.08.2018 09:00:00 19,9 12,4 14 8 30 16 SW 1017,6 17 0,0
11.08.2018 08:00:00 18,9 12,4 14 7 30 16 SW 1017,8 15 0,0
11.08.2018 07:00:00 17,8 12,3 16 9 35 19 SW 1017,9 14 0,0
11.08.2018 06:00:00 16,8 11,1 18 10 38 21 SW 1017,9 12 0,0
11.08.2018 05:00:00 17,0 11,1 18 10 44 24 SW 1017,5 15 0,0
11.08.2018 04:00:00 17,7 10,8 22 12 44 24 SW 1017,6 15 0,0
11.08.2018 03:00:00 17,8 11,4 24 13 46 25 SW 1017,8 12 0,0
11.08.2018 02:00:00 18,2 10,8 27 14 46 25 SW 1017,8 17 0,0
11.08.2018 01:00:00 18,4 10,5 23 12 42 23 SW 1017,8 13 0,0
11.08.2018 00:00:00 18,7 9,7 24 13 44 24 SW 1017,7 12 0,0
10.08.2018 23:00:00 19,2 9,4 22 12 45 25 SW 1017,4 11 0,0
10.08.2018 22:00:00 19,7 9,6 27 15 49 26 SW 1016,8 6 0,0
10.08.2018 21:00:00 20,3 10,4 24 13 49 26 SW 1016,0 12 0,0
10.08.2018 20:00:00 21,5 10,6 31 17 47 26 WSW 1015,0 11 0,0
10.08.2018 19:00:00 22,8 10,9 27 15 47 26 WSW 1014,0 13 0,0
10.08.2018 18:00:00 24,3 12,9 23 13 39 21 SW 1013,4 14 0,0
10.08.2018 17:00:00 25,7 14,8 18 10 44 24 SW 1013,0 41 0,0
10.08.2018 16:00:00 25,6 13,5 25 14 44 24 SW 1012,5 43 0,0
10.08.2018 15:00:00 25,1 14,6 22 12 48 26 SSW 1011,9 21 0,0
10.08.2018 14:00:00 25,9 14,7 27 14 55 30 SW 1011,5 25 0,0
10.08.2018 13:00:00 26,9 16,5 27 14 55 30 SW 1010,6 18 0,0
10.08.2018 12:00:00 26,2 17,8 37 20 56 30 S 1009,8 22 0,0
10.08.2018 11:00:00 25,5 18,9 36 19 63 34 S 1009,3 19 0,0
10.08.2018 10:00:00 24,8 19,2 30 16 63 34 SSW 1009,2 20 0,0
10.08.2018 09:00:00 24,8 19,8 33 18 54 29 S 1008,6 22 0,0
10.08.2018 08:00:00 24,0 20,9 40 22 54 29 SSE 1008,5 13 0,0
10.08.2018 07:00:00 23,1 21,2 36 19 47 26 SSE 1008,1 11 0,0
10.08.2018 06:00:00 22,7 20,4 14 8 47 26 S 1007,4 13 0,0
10.08.2018 05:00:00 23,6 20,9 35 19 44 24 SSE 1009,2 11 0,0
10.08.2018 04:00:00 23,2 20,7 24 13 37 20 SE 1008,8 11 0,0
10.08.2018 03:00:00 22,5 20,2 16 9 29 16 ESE 1010,5 10 0,0
10.08.2018 02:00:00 22,3 20,6 21 11 29 16 SE 1011,2 8 0,0
10.08.2018 01:00:00 21,1 19,6 10 5 28 15 SE 1012,4 11 0,0
10.08.2018 00:00:00 21,9 20,2 19 11 34 18 SSE 1012,9 10 0,0
09.08.2018 23:00:00 22,4 19,6 25 13 39 21 SSE 1013,5 12 0,0
09.08.2018 22:00:00 22,7 19,5 25 14 39 21 SSE 1013,5 12 0,0
09.08.2018 21:00:00 23,1 19,3 30 16 44 24 SSE 1013,5 11 0,0
09.08.2018 20:00:00 23,8 19,9 29 15 44 24 SSE 1013,5 16 0,0
09.08.2018 19:00:00 24,8 19,0 32 17 41 22 SSE 1013,6 32 0,0
09.08.2018 18:00:00 25,6 19,9 30 16 39 21 SSE 1013,8 22 0,0
09.08.2018 17:00:00 27,5 20,3 26 14 33 18 SSE 1014,1 16 0,0
09.08.2018 16:00:00 29,8 20,1 26 14 32 17 SSE 1014,2 14 0,0
09.08.2018 15:00:00 28,6 20,3 18 10 24 13 SSE 1014,6 11 0,0
09.08.2018 14:00:00 27,5 20,1 6 3 23 12 ENE 1014,9 16 0,0
09.08.2018 13:00:00 27,5 20,6 10 5 23 12 E 1014,8 15 0,0
09.08.2018 12:00:00 28,2 17,7 13 7 20 11 WSW 1014,7 18 0,0
09.08.2018 11:00:00 25,9 18,3 10 6 16 9 WSW 1014,6 15 0,0
09.08.2018 10:00:00 26,3 18,9 9 5 16 9 SW 1014,0 19 0,0
09.08.2018 09:00:00 23,2 19,8 5 3 10 6 SW 1013,7 24 0,0
09.08.2018 08:00:00 22,6 19,9 6 4 13 7 WSW 1013,5 29 0,0
09.08.2018 07:00:00 22,6 19,6 5 3 13 7 WSW 1013,1 13 0,0
09.08.2018 06:00:00 22,4 20,3 7 4 12 6 WSW 1012,7 13 0,0
09.08.2018 05:00:00 22,2 20,1 3 1 13 7 W 1011,8 14 0,0
09.08.2018 04:00:00 22,1 19,3 7 4 13 7 WSW 1011,9 13 0,0
09.08.2018 03:00:00 22,3 20,0 7 4 15 8 ESE 1011,5 14 0,0
09.08.2018 02:00:00 22,7 19,7 0 0 27 15 N 1011,8 16 0,0
09.08.2018 01:00:00 23,3 19,2 9 5 46 25 SE 1012,2 12 0,0
09.08.2018 00:00:00 23,9 19,4 21 12 50 27 SSE 1011,9 10 0,0
08.08.2018 23:00:00 23,7 19,6 36 19 50 27 SSE 1011,4 4,0 0,0
08.08.2018 22:00:00 23,5 19,2 32 18 48 26 SSE 1011,3 5 0,0
08.08.2018 21:00:00 23,7 19,4 32 17 48 26 SSE 1011,7 9 0,0
08.08.2018 20:00:00 24,0 19,5 31 17 48 26 SSE 1011,7 15 0,0
08.08.2018 19:00:00 24,2 19,7 35 19 52 28 SSE 1011,8 14 0,0
08.08.2018 18:00:00 25,0 20,0 36 19 54 29 SSE 1012,1 12 0,0
08.08.2018 17:00:00 25,1 19,7 39 21 54 29 SSE 1012,1 29 0,0
08.08.2018 16:00:00 26,5 19,4 39 21 53 28 SSE 1012,3 32 0,0
08.08.2018 15:00:00 26,9 19,0 39 21 56 30 SSE 1012,2 28 0,0

tt = Température de l'air
td = dewpoint
ff = Vitesse du vent
fx = gusts
dd = Direction du vent
ppp = reduced air pressure
vv = visibility
rr = Quantités de précipitations

stations d'obs. à proximité